| time (UTC) | temp F | wind direction | speed MPH | gust MPH | rain 1hr in | rain 24hr in | rain mn in | humidity % | barometer mb |
| 20260503004544 | 68 | 135 | 1.0 | 4.0 | 0.00 | 0.00 | 0.00 | 19 | 1013.6 |
| 20260503003042 | 66 | 135 | 0.0 | 4.0 | 0.00 | 0.00 | 0.00 | 21 | 1013.6 |
| 20260503001540 | 66 | 116 | 4.0 | 10.0 | 0.00 | 0.00 | 0.00 | 21 | 1013.6 |
| 20260503000049 | 67 | 136 | 7.0 | 15.0 | 0.00 | 0.00 | 0.00 | 24 | 1013.9 |
| 20260502234535 | 65 | 66 | 0.0 | 5.0 | 0.00 | 0.00 | 0.00 | 20 | 1014.0 |
| 20260502233034 | 66 | 280 | 3.0 | 7.0 | 0.00 | 0.00 | 0.00 | 20 | 1014.1 |
| 20260502231531 | 66 | 98 | 0.0 | 13.0 | 0.00 | 0.00 | 0.00 | 19 | 1014.2 |
| 20260502230029 | 66 | 309 | 2.0 | 7.0 | 0.00 | 0.00 | 0.00 | 20 | 1014.3 |
| 20260502224526 | 68 | 264 | 4.0 | 10.0 | 0.00 | 0.00 | 0.00 | 18 | 1014.4 |
| 20260502223125 | 68 | 135 | 0.0 | 6.0 | 0.00 | 0.00 | 0.00 | 18 | 1014.6 |
| 20260502221522 | 69 | 135 | 5.0 | 10.0 | 0.00 | 0.00 | 0.00 | 17 | 1014.9 |
| 20260502220019 | 69 | 136 | 3.0 | 8.0 | 0.00 | 0.00 | 0.00 | 17 | 1015.0 |
| 20260502214515 | 68 | 67 | 4.0 | 7.0 | 0.00 | 0.00 | 0.00 | 18 | 1015.2 |
| 20260502213015 | 68 | 197 | 4.0 | 7.0 | 0.00 | 0.00 | 0.00 | 19 | 1015.5 |
| 20260502211508 | 67 | 227 | 4.0 | 9.0 | 0.00 | 0.00 | 0.00 | 20 | 1015.7 |
| 20260502210007 | 65 | 165 | 0.0 | 5.0 | 0.00 | 0.00 | 0.00 | 21 | 1016.0 |
| 20260502204504 | 67 | 195 | 2.0 | 7.0 | 0.00 | 0.00 | 0.00 | 20 | 1016.2 |
| 20260502203100 | 65 | 204 | 1.0 | 4.0 | 0.00 | 0.00 | 0.00 | 21 | 1016.2 |
| 20260502201605 | 63 | 350 | 2.0 | 8.0 | 0.00 | 0.00 | 0.00 | 22 | 1016.3 |
| 20260502200058 | 64 | 266 | 2.0 | 7.0 | 0.00 | 0.00 | 0.00 | 23 | 1016.5 |
| 20260502194604 | 65 | 75 | 1.0 | 5.0 | 0.00 | 0.00 | 0.00 | 22 | 1016.6 |
| 20260502193105 | 64 | 271 | 2.0 | 7.0 | 0.00 | 0.00 | 0.00 | 23 | 1016.8 |
| 20260502191559 | 63 | 88 | 1.0 | 7.0 | 0.00 | 0.00 | 0.00 | 24 | 1017.2 |
| 20260502190050 | 65 | 163 | 6.0 | 9.0 | 0.00 | 0.00 | 0.00 | 23 | 1017.4 |
| 20260502184545 | 65 | 290 | 2.0 | 5.0 | 0.00 | 0.00 | 0.00 | 23 | 1017.4 |
| 20260502183040 | 65 | 72 | 3.0 | 10.0 | 0.00 | 0.00 | 0.00 | 23 | 1017.5 |
| 20260502181537 | 63 | 44 | 2.0 | 7.0 | 0.00 | 0.00 | 0.00 | 25 | 1017.8 |
| 20260502163015 | 59 | 239 | 3.0 | 7.0 | 0.00 | 0.00 | 0.00 | 30 | 1018.3 |
| 20260502161625 | 58 | 317 | 4.0 | 9.0 | 0.00 | 0.00 | 0.00 | 31 | 1018.4 |
| 20260502151555 | 53 | 272 | 4.0 | 8.0 | 0.00 | 0.00 | 0.00 | 39 | 1018.8 |
| 20260502123051 | 47 | 135 | 7.0 | 13.0 | 0.00 | 0.00 | 0.00 | 46 | 1017.8 |
| 20260502121523 | 47 | 352 | 6.0 | 12.0 | 0.00 | 0.00 | 0.00 | 46 | 1017.9 |
| 20260502114516 | 46 | 135 | 7.0 | 13.0 | 0.00 | 0.00 | 0.00 | 44 | 1017.3 |
| 20260502113011 | 47 | 290 | 7.0 | 13.0 | 0.00 | 0.00 | 0.00 | 42 | 1017.2 |
| 20260502111609 | 47 | 344 | 7.0 | 12.0 | 0.00 | 0.00 | 0.00 | 42 | 1017.0 |
| 20260502110005 | 48 | 305 | 5.0 | 8.0 | 0.00 | 0.00 | 0.00 | 42 | 1016.8 |
| 20260502104503 | 48 | 277 | 5.0 | 14.0 | 0.00 | 0.00 | 0.00 | 41 | 1016.6 |
| 20260502103058 | 47 | 288 | 5.0 | 8.0 | 0.00 | 0.00 | 0.00 | 42 | 1016.4 |
| 20260502101559 | 46 | 273 | 3.0 | 4.0 | 0.00 | 0.00 | 0.00 | 42 | 1016.0 |
| 20260502071511 | 49 | 313 | 1.0 | 2.0 | 0.00 | 0.00 | 0.00 | 32 | 1014.9 |
| 20260502070005 | 51 | 312 | 0.0 | 1.0 | 0.00 | 0.00 | 0.00 | 28 | 1014.8 |
| 20260502064600 | 53 | 272 | 0.0 | 1.0 | 0.00 | 0.00 | 0.00 | 27 | 1014.8 |
| 20260502063103 | 54 | 262 | 2.0 | 4.0 | 0.00 | 0.00 | 0.00 | 26 | 1014.7 |
| 20260502061555 | 53 | 302 | 1.0 | 6.0 | 0.00 | 0.00 | 0.00 | 26 | 1014.7 |
| 20260502060050 | 55 | 273 | 4.0 | 10.0 | 0.00 | 0.00 | 0.00 | 24 | 1014.7 |
| 20260502054550 | 54 | 25 | 3.0 | 6.0 | 0.00 | 0.00 | 0.00 | 25 | 1014.7 |
| 20260502053047 | 52 | 25 | 2.0 | 4.0 | 0.00 | 0.00 | 0.00 | 26 | 1014.8 |
| 20260502051545 | 54 | 25 | 3.0 | 7.0 | 0.00 | 0.00 | 0.00 | 22 | 1014.8 |
| 20260502050048 | 56 | 25 | 2.0 | 4.0 | 0.00 | 0.00 | 0.00 | 22 | 1014.5 |
| 20260502044543 | 55 | 25 | 1.0 | 5.0 | 0.00 | 0.00 | 0.00 | 23 | 1014.5 |
| 20260502043041 | 56 | 4 | 0.0 | 4.0 | 0.00 | 0.00 | 0.00 | 21 | 1014.3 |
| 20260502041537 | 58 | 295 | 2.0 | 6.0 | 0.00 | 0.00 | 0.00 | 19 | 1014.3 |
| 20260502040036 | 57 | 285 | 0.0 | 0.0 | 0.00 | 0.00 | 0.00 | 18 | 1014.3 |
| 20260502034534 | 58 | 285 | 0.0 | 1.0 | 0.00 | 0.00 | 0.00 | 17 | 1014.4 |
| 20260502033039 | 59 | 268 | 2.0 | 5.0 | 0.00 | 0.00 | 0.00 | 17 | 1014.1 |
| 20260502031631 | 60 | 262 | 1.0 | 5.0 | 0.00 | 0.00 | 0.00 | 15 | 1014.1 |
| 20260502030032 | 62 | 257 | 1.0 | 5.0 | 0.00 | 0.00 | 0.00 | 13 | 1013.9 |
| 20260502024526 | 64 | 252 | 1.0 | 5.0 | 0.00 | 0.00 | 0.00 | 11 | 1013.8 |
| 20260502023017 | 66 | 254 | 2.0 | 8.0 | 0.00 | 0.00 | 0.00 | 9 | 1013.7 |
| 20260502021511 | 68 | 266 | 2.0 | 6.0 | 0.00 | 0.00 | 0.00 | 8 | 1013.6 |
| 20260502020005 | 70 | 248 | 5.0 | 10.0 | 0.00 | 0.00 | 0.00 | 6 | 1013.4 |
| 20260502014701 | 71 | 259 | 5.0 | 10.0 | 0.00 | 0.00 | 0.00 | 5 | 1013.4 |
| 20260502013054 | 72 | 274 | 7.0 | 12.0 | 0.00 | 0.00 | 0.00 | 4 | 1013.4 |
| 20260502011551 | 72 | 253 | 7.0 | 16.0 | 0.00 | 0.00 | 0.00 | 2 | 1013.4 |
| 20260502010052 | 73 | 272 | 6.0 | 12.0 | 0.00 | 0.00 | 0.00 | 2 | 1013.4 |